Flag for Mongolia Weather past 2 weeks in Ulaanbaatar, Mongolia

Now
61 °F

Passing clouds.


Feels Like: 61 °F
Forecast: 51 / 71 °F
Wind: 6 mph from North

Location: Ulan-Bator

Current Time: Sep 1, 2015 at 1:16:02 AM

Latest Report: Sep 1, 2015 at 12:30 AM


Visibility: N/A

Pressure: 30.21 "Hg (25.91 "Hg at 1298m altitude)

Humidity: 72%

Dew point: 52 °F

Location of UlaanbaatarLocation

Historic Weather in Ulaanbaatar — Graph

°F

Ulaanbaatar temperature yesterday

Maximum temperature yesterday: 81 °F (at 4:30 PM)
Minimum temperature yesterday: 45 °F (at 6:00 AM)
Average temperature yesterday: 64 °F

Past Weeks' High & Low Weather Summary

 TemperatureHumidityPressure
High86 °F (Aug 23, 5:00 PM)94% (Aug 17, 4:00 AM)30.21 "Hg (Aug 17, 4:00 AM)
Low41 °F (Aug 21, 6:00 AM)13% (Aug 23, 5:00 PM)29.74 "Hg (Aug 17, 4:30 AM)
Average64 °F52%30.04 "Hg
* Reported Midnight between Aug 16 and Aug 17 — Sep 1 12:30 AM, Ulaanbaatar, Weather by CustomWeather, © 2015

Note: Actual official high and low records may vary slightly from our data, if they occured in-between our weather recording intervals... More about our weather records

Advertising

Ulaanbaatar weather history for previous 24 hours

 ConditionsComfort  
Time TempWeatherWind HumidityBarometerVisibility
12:30 AM
Tue, Sep 1
61 °FPassing clouds.6 mph72%30.21 "HgN/A
12:00 AM61 °FPassing clouds.8 mph77%30.21 "HgN/A
11:30 PM
Mon, Aug 31
61 °FPassing clouds.6 mph77%30.21 "HgN/A
11:00 PM63 °FPassing clouds.10 mph73%30.21 "HgN/A
10:30 PM63 °FPassing clouds.13 mph73%30.18 "HgN/A
10:00 PM64 °FPassing clouds.15 mph68%30.18 "HgN/A
9:30 PM66 °FScattered clouds.15 mph64%30.18 "HgN/A
9:00 PM66 °FScattered clouds.10 mph64%30.15 "HgN/A
8:30 PM68 °FScattered clouds.8 mph60%30.15 "HgN/A
8:00 PM72 °FScattered clouds.8 mph50%30.15 "HgN/A
7:30 PM72 °FScattered clouds.17 mph50%30.12 "HgN/A
7:00 PM75 °FScattered clouds.8 mph39%30.12 "HgN/A
6:30 PM79 °FScattered clouds.6 mph21%30.12 "HgN/A
6:00 PM81 °FScattered clouds.6 mph20%30.12 "HgN/A
5:30 PM81 °FScattered clouds.6 mph20%30.12 "HgN/A
5:00 PM81 °FScattered clouds.6 mph17%30.12 "HgN/A
4:30 PM81 °FScattered clouds.6 mph20%30.12 "HgN/A
4:00 PM79 °FScattered clouds.6 mph21%30.15 "HgN/A
3:30 PM79 °FScattered clouds.8 mph23%30.15 "HgN/A
3:00 PM77 °FScattered clouds.1 mph24%30.15 "HgN/A
2:30 PM77 °FScattered clouds.6 mph22%30.18 "HgN/A
2:00 PM77 °FScattered clouds.6 mph24%30.18 "HgN/A
1:30 PM75 °FPartly sunny.6 mph27%30.18 "HgN/A
12:30 PM73 °FPartly sunny.1 mph31%30.18 "HgN/A
12:00 PM72 °FPartly sunny.1 mph33%30.21 "HgN/A
11:30 AM70 °FPartly sunny.No wind35%30.21 "HgN/A
11:00 AM66 °FPartly sunny.No wind43%30.21 "HgN/A
10:30 AM63 °FPartly sunny.No wind49%30.21 "HgN/A
10:00 AM61 °FPartly sunny.No wind52%30.21 "HgN/A
9:30 AM55 °FPartly sunny.No wind63%30.21 "HgN/A
9:00 AM55 °FPartly sunny.No wind63%30.21 "HgN/A
8:30 AM52 °FScattered clouds.1 mph72%30.21 "HgN/A
8:00 AM48 °FPassing clouds.No wind76%30.21 "HgN/A
7:30 AM45 °FPassing clouds.No wind81%30.21 "HgN/A
6:30 AM45 °FPassing clouds.No wind76%30.21 "HgN/A
6:00 AM45 °FPassing clouds.No wind76%30.21 "HgN/A
5:30 AM48 °FClear.No wind71%30.21 "Hg10 mi
4:30 AM48 °FClear.No wind71%30.21 "Hg10 mi
4:00 AM48 °FClear.1 mph71%30.21 "Hg10 mi
3:00 AM48 °FClear.1 mph71%30.21 "Hg10 mi
2:30 AM52 °FClear.No wind67%30.21 "Hg10 mi
2:00 AM54 °FClear.No wind63%30.18 "Hg10 mi
1:30 AM54 °FClear.No wind63%30.18 "Hg10 mi
1:00 AM57 °FClear.No wind55%30.18 "Hg10 mi
Weather by CustomWeather, © 2015

See weather overviewHow to use our weather pages